User: anonymous   Login
Location: Unspecified
(0.0000°N, 0.0000°E)
Time: 07:50:59
(UTC+02:00)
Language:

ARIANE 44L R/B - Orbit

View from above orbital plane
View from above orbital plane
View from above satellite
View from above satellite

Ground track
Ground track

The orbit data is extracted from the following two-line orbital elements,

1 26901U 01039B   16147.76377350 +.00003276 +00000-0 +80269-3 0  9994
2 26901 007.4986 328.0892 6914165 316.6189 006.0604 02.75325435132886
Epoch (UTC): 26 May 2016 18:19:50
Eccentricity: 0.6914165
inclination: 7.4986°
perigee height: 257 km
apogee height: 29992 km
right ascension of ascending node: 328.0892°
argument of perigee: 316.6189°
revolutions per day: 2.75325435
mean anomaly at epoch: 6.0604°
orbit number at epoch: 13288

The dashed part of the orbit path shows where the satellite is in the earth's shadow,  

DLR